N521XA K50R-K50R

Flight info

Callsign N521XA
Flight time N/A
Altitude 2500
Route 300958N0962352W 303658N0961827W 303616N0962917W 303643N0963305W
Aircraft H160/L-SBDGRY/S

Departure

Time 2026-04-24 22:29
Airport Lockhart Municipal Airport (K50R)

Arrival

Time N/A
Airport Lockhart Municipal Airport (K50R)
Time Latitude Longitude Altitude Speed Heading
2026-04-24 22:20 29.85205 -97.67107 546 ft 0 kts 176°
2026-04-24 22:25 29.85202 -97.67107 550 ft 1 kts 176°
2026-04-24 22:25 29.85200 -97.67055 675 ft 21 kts 151°
2026-04-24 22:25 29.85244 -97.66686 836 ft 74 kts 64°
2026-04-24 22:25 29.85447 -97.65915 764 ft 126 kts 80°
2026-04-24 22:26 29.85705 -97.64822 725 ft 151 kts 78°
2026-04-24 22:26 29.85991 -97.63648 797 ft 152 kts 77°
2026-04-24 22:26 29.86288 -97.62467 811 ft 155 kts 76°
2026-04-24 22:26 29.86587 -97.61290 918 ft 152 kts 75°
2026-04-24 22:27 29.86903 -97.60089 965 ft 157 kts 80°
2026-04-24 22:27 29.87194 -97.58894 968 ft 156 kts 79°
2026-04-24 22:27 29.87486 -97.57690 961 ft 158 kts 79°
2026-04-24 22:27 29.87784 -97.56474 964 ft 158 kts 81°
2026-04-24 22:28 29.88080 -97.55269 970 ft 157 kts 80°
2026-04-24 22:28 29.88387 -97.54042 965 ft 162 kts 78°
2026-04-24 22:28 29.88701 -97.52797 971 ft 158 kts 75°
2026-04-24 22:28 29.89006 -97.51581 991 ft 158 kts 75°
2026-04-24 22:29 29.89630 -97.49163 1058 ft 156 kts 77°
2026-04-24 22:29 29.89934 -97.47962 1098 ft 155 kts 76°
2026-04-24 22:29 29.90240 -97.46761 1151 ft 158 kts 77°
2026-04-24 22:30 29.90545 -97.45555 1199 ft 158 kts 78°
2026-04-24 22:30 29.90856 -97.44328 1281 ft 156 kts 79°
2026-04-24 22:30 29.91167 -97.43089 1321 ft 164 kts 76°
2026-04-24 22:30 29.91473 -97.41847 1372 ft 161 kts 78°
2026-04-24 22:31 29.91779 -97.40615 1457 ft 157 kts 80°
2026-04-24 22:31 29.92085 -97.39385 1551 ft 162 kts 80°
2026-04-24 22:31 29.92398 -97.38144 1651 ft 159 kts 76°
2026-04-24 22:31 29.92709 -97.36910 1736 ft 162 kts 77°
2026-04-24 22:32 29.93032 -97.35646 1836 ft 166 kts 76°
2026-04-24 22:32 29.93351 -97.34374 1938 ft 162 kts 78°
2026-04-24 22:32 29.93667 -97.33116 2016 ft 166 kts 77°
2026-04-24 22:32 29.93988 -97.31848 2061 ft 163 kts 76°
2026-04-24 22:33 29.94298 -97.30587 2055 ft 165 kts 79°
2026-04-24 22:33 29.94607 -97.29320 2050 ft 164 kts 77°
2026-04-24 22:33 29.94920 -97.28050 2060 ft 163 kts 78°
2026-04-24 22:33 29.95225 -97.26798 2057 ft 163 kts 78°
2026-04-24 22:34 29.95543 -97.25517 2063 ft 166 kts 78°
2026-04-24 22:34 29.95853 -97.24266 2058 ft 165 kts 78°
2026-04-24 22:34 29.96169 -97.23003 2069 ft 162 kts 79°
2026-04-24 22:34 29.96474 -97.21770 2073 ft 159 kts 78°
2026-04-24 22:35 29.96789 -97.20516 2069 ft 166 kts 79°
2026-04-24 22:35 29.97102 -97.19256 2083 ft 161 kts 79°
2026-04-24 22:35 29.97410 -97.18009 2080 ft 162 kts 79°
2026-04-24 22:35 29.97720 -97.16766 2075 ft 161 kts 78°
2026-04-24 22:36 29.98035 -97.15511 2072 ft 164 kts 80°
2026-04-24 22:36 29.98346 -97.14270 2066 ft 161 kts 78°
2026-04-24 22:36 29.98660 -97.13020 2073 ft 160 kts 79°
2026-04-24 22:36 29.98970 -97.11784 2071 ft 162 kts 78°
2026-04-24 22:37 29.99286 -97.10526 2063 ft 163 kts 79°
2026-04-24 22:37 29.99589 -97.09262 1805 ft 170 kts 76°
2026-04-24 22:37 29.99932 -97.07878 1607 ft 179 kts 79°
2026-04-24 22:37 30.00272 -97.06503 1497 ft 180 kts 78°
2026-04-24 22:38 30.00619 -97.05113 1424 ft 179 kts 77°
2026-04-24 22:38 30.00957 -97.03737 1340 ft 178 kts 78°
2026-04-24 22:38 30.01290 -97.02397 1356 ft 172 kts 77°
2026-04-24 22:38 30.01635 -97.01083 1354 ft 174 kts 76°
2026-04-24 22:39 30.02083 -96.99782 1357 ft 175 kts 70°
2026-04-24 22:39 30.02656 -96.98536 1365 ft 175 kts 64°
2026-04-24 22:39 30.03337 -96.97380 1356 ft 177 kts 56°
2026-04-24 22:39 30.04085 -96.96269 1373 ft 172 kts 60°
2026-04-24 22:40 30.04610 -96.95027 1372 ft 173 kts 75°
2026-04-24 22:40 30.04960 -96.93708 1365 ft 173 kts 79°
2026-04-24 22:40 30.05257 -96.92367 1374 ft 171 kts 82°
2026-04-24 22:40 30.05553 -96.91024 1359 ft 173 kts 79°
2026-04-24 22:41 30.05857 -96.89705 1373 ft 166 kts 81°
2026-04-24 22:41 30.06153 -96.88392 1363 ft 171 kts 79°
2026-04-24 22:41 30.06443 -96.87075 1356 ft 170 kts 78°
2026-04-24 22:41 30.06640 -96.86193 1350 ft 171 kts 79°
2026-04-24 22:42 30.07031 -96.84426 1348 ft 170 kts 77°
2026-04-24 22:42 30.07326 -96.83095 1321 ft 173 kts 78°
2026-04-24 22:42 30.07624 -96.81748 1319 ft 175 kts 81°
2026-04-24 22:42 30.07934 -96.80391 1323 ft 172 kts 81°
2026-04-24 22:43 30.08272 -96.79044 1323 ft 174 kts 78°
2026-04-24 22:43 30.08613 -96.77724 1308 ft 174 kts 79°
2026-04-24 22:43 30.08966 -96.76379 1305 ft 177 kts 76°
2026-04-24 22:43 30.09326 -96.75014 1302 ft 178 kts 77°
2026-04-24 22:44 30.09681 -96.73660 1300 ft 173 kts 77°
2026-04-24 22:44 30.10030 -96.72319 1294 ft 176 kts 79°
2026-04-24 22:44 30.10377 -96.70996 1292 ft 171 kts 79°
2026-04-24 22:44 30.10777 -96.69679 1278 ft 177 kts 74°
2026-04-24 22:45 30.11192 -96.68384 1266 ft 171 kts 72°
2026-04-24 22:45 30.11622 -96.67079 1242 ft 176 kts 72°
2026-04-24 22:45 30.12062 -96.65759 1242 ft 175 kts 73°
2026-04-24 22:45 30.12499 -96.64441 1234 ft 175 kts 73°
2026-04-24 22:46 30.12932 -96.63127 1222 ft 177 kts 71°
2026-04-24 22:46 30.13365 -96.61808 1214 ft 177 kts 72°
2026-04-24 22:46 30.13807 -96.60474 1210 ft 175 kts 73°
2026-04-24 22:46 30.14240 -96.59163 1194 ft 178 kts 72°
2026-04-24 22:47 30.14685 -96.57829 1226 ft 171 kts 75°
2026-04-24 22:47 30.15079 -96.56604 1228 ft 155 kts 77°
2026-04-24 22:47 30.15424 -96.55487 1103 ft 140 kts 76°
2026-04-24 22:47 30.15722 -96.54470 861 ft 126 kts 82°
2026-04-24 22:48 30.15974 -96.53599 710 ft 104 kts 76°
2026-04-24 22:48 30.16152 -96.52829 647 ft 94 kts 79°
2026-04-24 22:48 30.16304 -96.52125 638 ft 86 kts 80°
2026-04-24 22:48 30.16436 -96.51489 633 ft 78 kts 76°
2026-04-24 22:49 30.16547 -96.50901 620 ft 70 kts 80°
2026-04-24 22:49 30.16655 -96.50286 607 ft 89 kts 83°
2026-04-24 22:49 30.16782 -96.49575 620 ft 91 kts 86°
2026-04-24 22:49 30.16915 -96.48853 627 ft 92 kts 81°
2026-04-24 22:50 30.17061 -96.48132 679 ft 92 kts 79°
2026-04-24 22:50 30.17224 -96.47410 702 ft 93 kts 82°
2026-04-24 22:50 30.17392 -96.46700 725 ft 88 kts 78°
2026-04-24 22:50 30.17583 -96.45980 723 ft 99 kts 72°
2026-04-24 22:51 30.17768 -96.45243 726 ft 93 kts 81°
2026-04-24 22:51 30.17872 -96.44760 710 ft 94 kts 84°
2026-04-24 22:51 30.17981 -96.44028 714 ft 93 kts 85°
2026-04-24 22:51 30.18059 -96.43292 706 ft 91 kts 91°
2026-04-24 22:52 30.18109 -96.42565 696 ft 92 kts 91°
2026-04-24 22:52 30.18159 -96.41821 703 ft 92 kts 92°
2026-04-24 22:52 30.18226 -96.41067 692 ft 97 kts 89°
2026-04-24 22:52 30.18311 -96.40308 673 ft 94 kts 90°
2026-04-24 22:53 30.18273 -96.39587 657 ft 87 kts 112°
2026-04-24 22:53 30.17967 -96.39011 642 ft 83 kts 137°
2026-04-24 22:53 30.17515 -96.38626 654 ft 80 kts 156°
2026-04-24 22:53 30.16993 -96.38424 648 ft 81 kts 170°
2026-04-24 22:54 30.16448 -96.38414 635 ft 78 kts 184°
2026-04-24 22:54 30.15918 -96.38607 651 ft 83 kts 205°
2026-04-24 22:54 30.15531 -96.39104 685 ft 86 kts 236°
2026-04-24 22:54 30.15430 -96.39814 680 ft 91 kts 272°
2026-04-24 22:55 30.15673 -96.40476 678 ft 92 kts 302°
2026-04-24 22:55 30.16213 -96.40898 687 ft 96 kts 342°
2026-04-24 22:55 30.16871 -96.40923 685 ft 98 kts 13°
2026-04-24 22:55 30.17561 -96.40715 877 ft 106 kts 15°
2026-04-24 22:56 30.18314 -96.40446 1139 ft 126 kts 12°
2026-04-24 22:56 30.19139 -96.40140 1443 ft 126 kts 20°
2026-04-24 22:56 30.19965 -96.39767 1563 ft 128 kts 21°
2026-04-24 22:56 30.20788 -96.39308 1559 ft 142 kts 25°
2026-04-24 22:57 30.21684 -96.38728 1567 ft 144 kts 33°
2026-04-24 22:57 30.22512 -96.38082 1561 ft 144 kts 36°
2026-04-24 22:57 30.23309 -96.37371 1564 ft 143 kts 38°
2026-04-24 22:57 30.24110 -96.36677 1565 ft 146 kts 36°
2026-04-24 22:58 30.25008 -96.36135 1577 ft 147 kts 23°
2026-04-24 22:58 30.25919 -96.35666 1589 ft 143 kts 22°
2026-04-24 22:58 30.26833 -96.35205 1589 ft 145 kts 22°
2026-04-24 22:58 30.27782 -96.34728 1597 ft 147 kts 23°
2026-04-24 22:59 30.28710 -96.34262 1608 ft 146 kts 23°
2026-04-24 22:59 30.29643 -96.33791 1611 ft 150 kts 22°
2026-04-24 22:59 30.31530 -96.32831 1627 ft 147 kts 23°
2026-04-24 23:00 30.32468 -96.32354 1631 ft 147 kts 24°
2026-04-24 23:00 30.33411 -96.31879 1629 ft 150 kts 21°
2026-04-24 23:00 30.34357 -96.31403 1641 ft 147 kts 24°
2026-04-24 23:00 30.35305 -96.30924 1645 ft 151 kts 23°
2026-04-24 23:01 30.36250 -96.30442 1698 ft 147 kts 21°
2026-04-24 23:01 30.37173 -96.29967 1694 ft 146 kts 22°
2026-04-24 23:01 30.38091 -96.29500 1700 ft 141 kts 21°
2026-04-24 23:01 30.39018 -96.29037 1697 ft 148 kts 21°
2026-04-24 23:02 30.39958 -96.28564 1706 ft 143 kts 22°
2026-04-24 23:02 30.40872 -96.28105 1709 ft 144 kts 24°
2026-04-24 23:02 30.41795 -96.27643 1706 ft 146 kts 25°
2026-04-24 23:02 30.42732 -96.27172 1716 ft 147 kts 22°
2026-04-24 23:03 30.43658 -96.26669 1714 ft 147 kts 26°
2026-04-24 23:03 30.44551 -96.26156 1717 ft 144 kts 27°
2026-04-24 23:03 30.45451 -96.25638 1717 ft 146 kts 24°
2026-04-24 23:03 30.46360 -96.25115 1727 ft 144 kts 27°
2026-04-24 23:04 30.47262 -96.24596 1718 ft 145 kts 26°